Regional Weather Roundup
Issued by NWS Jackson, KY

Home | Current Version | Previous Version | Text Only | Print | Product List | Glossary Off
Versions: 1 2 3 4 5 6 7 8 9 10 11 12 13 14 15 16 17 18 19 20 21 22 23 24 25 26 27 28 29 30 31 32 33 34 35 36 37 38 39 40 41 42 43 44 45 46 47 48 49 50

000
ASUS43 KJKL 172110
RWRJKL

EAST KENTUCKY HOURLY WEATHER ROUNDUP
NATIONAL WEATHER SERVICE JACKSON KY
500 PM EDT FRI APR 17 2015

NOTE: "FAIR" INDICATES FEW OR NO CLOUDS BELOW 12,000 FEET WITH
NO SIGNIFICANT WEATHER AND/OR OBSTRUCTIONS TO VISIBILITY.

* THESE REPORTS ARE NOT UNDER NWS QUALITY CONTROL AND MAY NOT
  REPORT WEATHER SUCH AS PRECIPITATION AND FOG.

KYZ079-080-083-085-087-088-110-112-115-119-120-172200
...EASTERN KENTUCKY...

CITY           SKY/WX    TMP DP  RH WIND       PRES   REMARKS
JACKSON        PTSUNNY   73  55  53 VRB3      30.04F
LONDON         PTSUNNY   75  52  44 CALM      30.03F
SOMERSET*      CLOUDY    72  57  60 CALM      30.05F
MONTICELLO*    PTSUNNY   76  60  57 VRB6      30.06F
MIDDLESBORO*   CLOUDY    74  56  51 S5        30.02F
HARLAN APT*    MOCLDY    73  52  46 W3        30.02F
HAZARD APT*    MOCLDY    75  57  53 CALM      30.03F
BLACK MTN*       N/A     64  54  68 NW2         N/A
PIKEVILLE APT* PTSUNNY   73  55  53 CALM      30.03F
BIG SANDY*     MOCLDY   N/A N/A N/A SW3       30.03F
MOREHEAD APT*  PTCLDY    72  55  56 W5        30.06S
$$

KYZ035-036-041-042-044-050-067-078-099-172200
...CENTRAL KENTUCKY...

CITY           SKY/WX    TMP DP  RH WIND       PRES   REMARKS
MT STERLING*   CLOUDY    72  59  64 W3        30.05F
FLEMING/MASON* MOSUNNY   72  59  64 CALM      30.04F
DANVILLE*      PTSUNNY   72  59  64 N3        30.05F
RICHMOND*      PTSUNNY   72  57  60 N3        30.04F
LEXINGTON      CLOUDY    72  58  61 W3        30.04F
FRANKFORT      CLOUDY    74  58  57 CALM      30.02F
$$

KYZ091>093-OHZ055-061-077-WVZ005-015-034-035-042-172200
...SOUTHERN OHIO/WEST VIRGINIA...

CITY           SKY/WX    TMP DP  RH WIND       PRES   REMARKS
COVINGTON      PTSUNNY   75  48  38 NW3       30.04F
COLUMBUS       PTSUNNY   73  43  33 W5        30.01F
DAYTON         PTSUNNY   75  37  25 NW3       30.05F
WILMINGTON     SUNNY     73  44  35 CALM      30.03F
HUNTINGTON     PTSUNNY   73  57  57 CALM      30.00F
CHARLESTON     PTSUNNY   75  54  47 W7        30.01F
PINEVILLE*     PTSUNNY   76  55  49 MISG      30.08F
BECKLEY        CLOUDY    71  51  49 NW9       30.05F
BLUEFIELD      PTSUNNY   75  45  34 NW10      30.07F
$$

VAZ002-007-008-TNZ017-027-036-066-071-172200
...SOUTHWEST VIRGINIA/EAST TENNESSEE...

CITY           SKY/WX    TMP DP  RH WIND       PRES   REMARKS
WISE*          PTSUNNY   72  50  46 NW6       30.07F
JONESVILLE*    MOCLDY    73  57  56 CALM      30.05F
ABINGDON*      PTSUNNY   73  54  51 W7        30.04F
BRISTOL        CLOUDY    74  54  49 SW3       30.03F
KNOXVILLE      CLOUDY    70  59  68 E3        30.03F
OAK RIDGE      CLOUDY    72  58  61 SE5       30.04F
CROSSVILLE     CLOUDY    70  57  63 S7        30.05F
NASHVILLE      CLOUDY    70  60  70 CALM      30.03F
$$

...KEY TO REMARKS...
VSB - VISIBILITY IN MILES
WCI - WIND CHILL INDEX
HX  - HEAT INDEX

$$


USA.gov is the U.S. government's official web portal to all federal, state and local government web resources and services.